User: anonymous   Login
Location: Elk Forest
(39.5314°N, 75.8738°W)
Time: 09:37:43
(UTC-04:00)
Language:

Resurs 01 Rocket - Orbit

View from above orbital plane
View from above orbital plane
View from above satellite
View from above satellite

Ground track
Ground track

The orbit data is extracted from the following two-line orbital elements,

1 23343U 94074B   16121.69031869  .00000037  00000-0  12992-4 0  9999
2 23343  98.1973 147.4778 0006008 324.2499 147.4593 14.76651096155952
Epoch (UTC): 30 April 2016 16:34:03
Eccentricity: 0.0006008
inclination: 98.1973°
perigee height: 636 km
apogee height: 644 km
right ascension of ascending node: 147.4778°
argument of perigee: 324.2499°
revolutions per day: 14.76651096
mean anomaly at epoch: 147.4593°
orbit number at epoch: 15595

The dashed part of the orbit path shows where the satellite is in the earth's shadow,  

DLR